STARLINK-35617

Last updated on Fri Dec 12 2025 00:02:05 GMT+0000 (Coordinated Universal Time)

1 66422U 25259A 25345.51813417 .00109369 00000+0 25856-2 0 9997 2 66422 43.0017 55.1528 0001500 262.9042 97.1644 15.40728363 5975
UTC large
Height (km)
Speed (km/s)
/
Latitude / Longitude
Inclination (degrees)
Orbital Period (minutes)
Azimuth
Elevation
Range (km)
Doppler Factor

Next 0 passes for location: London (51.5072 / 0.1276)

Sorry there are no passes over London.